{"data":{"norad_id":65060,"epoch":"2026-09-20T22:00:03.000096Z","epoch_age_seconds":84853,"freshness":"FRESH","line1":"1 65060U 25165E   26263.91670139 -.00028363  00000+0 -87984-3 0  9993","line2":"2 65060  97.2856 335.1439 0001679  96.5842 134.1441 15.33431483  5649","mean_motion":15.33431483,"eccentricity":0.0001679,"inclination_deg":97.2856,"raan_deg":335.1439,"arg_perigee_deg":96.5842,"mean_anomaly_deg":134.1441,"bstar":-0.00087984,"rev_number":564,"period_min":93.907032427871,"perigee_km":464.43433120174,"apogee_km":466.73245250933,"semimajor_km":6843.7203918555,"source":"CELESTRAK","updated_at":"2026-09-21T09:00:35.498560Z"}}